Total_Precipitation_Accumulation
0.39 0.34 0.32 0.28 0.25 0.21 0.20 0.22 0.24 0.25 0.23 0.20 0.16 0.13 0.12 0.12 0.10 0.09 0.08 0.09 0.09 0.09 0.11 0.14 0.20 0.22 0.11 0.06 0.01 0.00 0.00 0.00 0.00 0.00 0.00 0.00 0.00 0.00 0.01 0.00 0.00 0.00 0.00 0.00 0.00 0.01 0.00
0.44 0.38 0.31 0.30 0.29 0.27 0.26 0.24 0.22 0.21 0.21 0.20 0.20 0.17 0.15 0.14 0.14 0.13 0.11 0.09 0.10 0.12 0.15 0.21 0.36 0.45 0.25 0.13 0.00 0.00 0.00 0.00 0.00 0.00 0.00 0.00 0.00 0.00 0.01 0.00 0.00 0.00 0.00 0.00 0.01 0.00 0.00
0.55 0.48 0.41 0.42 0.38 0.34 0.32 0.31 0.31 0.27 0.23 0.18 0.19 0.19 0.20 0.18 0.17 0.17 0.15 0.12 0.10 0.12 0.17 0.28 0.56 0.76 0.59 0.16 0.00 0.00 0.00 0.00 0.00 0.00 0.00 0.00 0.00 0.00 0.00 0.00 0.00 0.00 0.00 0.00 0.05 0.05 0.02
0.60 0.55 0.52 0.51 0.44 0.41 0.34 0.34 0.37 0.37 0.34 0.28 0.23 0.22 0.22 0.23 0.22 0.20 0.19 0.17 0.18 0.17 0.24 0.37 0.68 0.87 0.63 0.04 0.00 0.00 0.00 0.00 0.00 0.00 0.00 0.00 0.00 0.00 0.00 0.00 0.00 0.00 0.00 0.00 0.06 0.08 0.02
0.81 0.67 0.59 0.53 0.53 0.49 0.45 0.39 0.38 0.37 0.40 0.48 0.45 0.38 0.33 0.33 0.32 0.31 0.33 0.33 0.29 0.33 0.53 0.86 1.12 1.12 0.51 0.02 0.00 0.00 0.02 0.03 0.02 0.01 0.00 0.00 0.01 0.01 0.00 0.01 0.00 0.00 0.01 0.05 0.07 0.02 0.00
1.00 0.86 0.72 0.63 0.57 0.53 0.56 0.57 0.55 0.50 0.44 0.41 0.50 0.60 0.56 0.53 0.56 0.52 0.45 0.44 0.47 0.71 0.95 1.67 2.11 1.90 0.58 0.02 0.02 0.07 0.11 0.12 0.08 0.14 0.09 0.01 0.04 0.05 0.02 0.02 0.02 0.05 0.06 0.04 0.02 0.02 0.00
1.26 1.04 0.84 0.75 0.67 0.65 0.69 0.66 0.64 0.56 0.57 0.62 0.65 0.66 0.77 0.85 0.93 0.93 0.89 1.02 1.13 1.19 1.16 1.13 1.32 1.16 0.37 0.15 0.18 0.16 0.23 0.59 0.41 0.27 0.39 0.14 0.24 0.31 0.09 0.04 0.02 0.01 0.01 0.01 0.01 0.00 0.01
1.82 1.63 1.54 1.27 1.04 0.94 0.89 0.89 0.85 0.76 0.78 0.72 0.70 0.86 0.94 1.06 1.47 1.70 1.70 1.39 0.73 0.43 0.54 0.22 0.20 0.40 0.32 0.26 0.46 0.19 0.27 1.04 1.40 0.94 0.42 0.37 0.49 0.31 0.16 0.11 0.06 0.04 0.02 0.01 0.00 0.00 0.00
2.52 2.47 2.29 2.04 1.77 1.60 1.40 1.16 1.03 0.89 0.77 0.78 0.83 0.90 1.13 1.57 1.90 2.27 1.86 0.96 0.26 0.42 1.27 0.54 0.06 0.05 0.06 0.25 0.49 0.22 0.29 0.79 1.20 1.05 0.49 0.53 0.46 0.20 0.18 0.21 0.20 0.10 0.06 0.02 0.00 0.00 0.00
2.67 2.44 2.36 2.25 2.05 1.78 1.53 1.31 1.12 1.02 0.99 0.89 0.85 1.01 1.45 2.19 3.08 1.95 1.61 0.55 0.40 1.25 3.54 1.68 0.20 0.04 0.01 0.19 0.61 0.15 0.28 0.59 0.99 0.92 0.49 0.51 0.29 0.15 0.26 0.32 0.27 0.22 0.03 0.01 0.01 0.04 0.07
2.73 2.61 2.49 2.26 2.09 1.88 1.56 1.37 1.17 1.12 1.07 1.02 1.02 1.15 1.69 2.20 1.92 1.46 0.78 0.46 1.21 3.31 6.34 1.72 0.11 0.02 0.01 0.08 0.23 0.10 0.15 0.51 0.73 0.58 0.85 1.20 0.29 0.13 0.15 0.26 0.18 0.27 0.02 0.01 0.03 0.05 0.08
2.32 2.41 2.43 2.41 2.33 2.22 2.02 1.88 1.75 1.45 1.26 1.33 1.32 1.48 1.80 2.17 2.54 1.43 0.72 1.01 3.26 6.76 5.91 1.05 0.04 0.07 0.09 0.07 0.06 0.07 0.29 0.68 0.78 0.80 1.00 1.11 0.35 0.27 0.27 0.06 0.06 0.21 0.13 0.10 0.13 0.26 0.35
2.30 2.47 2.47 2.30 2.23 2.18 2.15 2.15 2.30 2.21 2.12 2.08 2.04 2.04 1.87 1.59 2.06 1.64 1.67 2.83 6.55 7.20 2.34 0.49 0.08 0.09 0.12 0.11 0.12 0.08 0.39 0.88 1.30 1.72 1.38 0.76 0.46 0.30 0.28 0.26 0.11 0.31 0.79 1.17 0.93 0.84 0.73
2.33 2.22 2.17 2.18 2.19 2.08 2.09 2.16 2.25 2.63 2.67 2.74 2.88 2.88 2.51 2.07 1.66 2.24 3.70 5.82 7.31 3.21 1.05 0.18 0.02 0.02 0.15 0.28 0.36 0.32 0.54 1.01 0.98 1.14 1.03 0.66 0.49 0.35 0.38 0.50 0.29 0.40 0.85 1.90 1.64 0.58 0.27
2.72 2.43 2.34 2.01 1.86 1.87 2.09 2.18 2.32 2.60 2.98 3.12 3.59 3.80 3.77 3.39 2.43 3.03 5.02 8.14 4.87 1.42 0.48 0.22 0.07 0.13 0.12 0.24 0.55 0.64 0.65 0.92 1.26 1.33 1.68 1.19 0.69 0.22 0.21 0.15 0.21 0.56 1.12 0.93 1.31 0.69 0.49
3.28 2.81 2.49 2.37 1.90 1.89 1.81 2.01 2.22 2.35 2.81 3.33 3.72 4.00 3.50 2.81 3.43 5.00 6.89 5.73 2.48 0.61 0.15 0.13 0.30 0.32 0.17 0.13 0.38 0.66 1.14 1.14 0.84 1.03 1.57 1.41 1.03 0.22 0.21 0.36 0.73 1.13 1.12 1.60 2.86 2.80 1.44
3.87 3.24 2.77 2.57 2.42 2.24 2.12 2.09 2.57 2.77 2.68 3.83 4.48 4.89 2.86 2.77 5.88 9.00 8.41 3.96 1.29 0.28 0.12 0.26 0.32 0.37 0.22 0.29 0.33 0.61 1.08 1.08 0.69 0.65 0.91 1.68 1.93 0.59 0.67 1.18 1.16 1.84 2.24 2.72 3.14 2.30 1.72
3.75 3.81 3.20 2.71 2.60 2.46 2.71 2.42 2.76 2.93 3.95 5.42 5.68 5.41 2.65 3.47 7.24 8.23 5.19 2.03 0.75 0.16 0.08 0.21 0.26 0.43 0.36 0.22 0.31 0.54 0.88 0.74 0.40 0.41 0.62 1.20 2.04 0.87 0.46 0.85 0.64 0.75 1.43 2.04 3.64 2.82 1.67
3.58 3.77 4.04 3.37 2.87 2.67 2.76 3.22 2.99 3.16 4.25 5.41 6.89 4.85 4.60 5.17 6.32 4.21 2.17 1.26 0.67 0.28 0.20 0.29 0.36 0.36 0.49 0.28 0.52 0.29 0.39 0.22 0.12 0.32 0.75 0.93 1.98 1.86 0.82 1.10 1.50 1.76 1.88 2.05 2.48 2.30 1.72
3.77 3.78 3.69 4.05 3.53 3.17 3.07 3.20 3.58 3.80 4.45 5.82 7.52 7.72 8.16 8.78 4.27 2.02 1.82 1.68 1.18 0.44 0.31 0.31 0.43 0.38 0.46 0.69 0.68 0.46 0.24 0.25 0.12 0.18 0.42 1.15 1.81 1.67 1.66 1.39 1.63 1.81 1.39 1.49 2.14 2.74 1.61
3.86 3.85 3.91 4.11 4.37 3.82 3.42 3.69 4.04 4.48 5.88 8.87 9.61 5.95 3.77 5.49 4.31 2.02 1.40 1.46 1.02 0.80 0.49 0.42 0.55 0.40 0.59 0.79 0.68 0.75 0.59 0.27 0.22 0.21 0.32 1.04 1.97 1.37 0.94 0.44 0.40 0.61 0.82 0.86 1.48 1.31 1.35
3.90 3.89 4.06 4.14 4.87 5.00 4.79 4.56 4.84 5.16 7.16 10.80 9.05 4.21 2.20 1.19 0.95 1.78 1.90 1.68 0.90 0.66 0.74 0.76 0.76 0.41 0.45 0.86 0.82 0.77 0.90 1.04 0.63 0.51 0.75 1.18 1.60 0.85 0.68 0.30 0.37 0.58 0.74 0.78 0.81 0.65 0.47
4.36 4.13 4.13 4.26 4.78 5.36 5.79 5.32 4.95 5.53 8.92 11.93 5.76 1.91 2.79 2.34 1.51 2.48 2.03 1.11 0.72 0.51 0.59 0.37 0.50 0.64 0.62 0.53 0.55 0.68 0.68 1.00 1.39 1.17 1.06 1.29 1.76 1.68 1.29 0.37 0.82 1.75 0.79 0.71 1.36 0.77 0.77
5.05 4.62 4.27 4.54 4.72 4.96 5.07 5.05 4.76 5.41 6.75 6.75 3.22 2.23 4.13 3.74 1.56 1.25 1.06 0.87 0.64 0.62 0.84 0.43 0.35 0.63 0.59 0.28 0.56 0.89 0.84 0.88 0.84 1.00 1.25 1.25 1.47 2.22 1.75 1.00 2.35 1.08 0.19 0.21 0.70 1.17 0.95
4.84 4.30 3.88 3.83 4.25 4.44 4.74 4.45 4.42 4.95 5.28 4.89 3.17 3.53 4.56 3.58 1.53 0.88 0.84 1.35 1.33 1.04 1.00 0.90 0.62 0.47 0.62 0.80 2.07 2.44 2.13 1.87 1.34 0.75 0.66 1.10 1.46 2.50 2.16 1.36 0.85 0.45 0.22 0.11 0.23 0.62 0.36
4.55 4.66 4.25 3.81 3.77 3.62 3.84 4.43 3.81 4.34 5.21 4.97 3.63 3.68 5.00 4.48 2.07 0.92 0.99 1.06 1.72 2.13 1.82 1.28 0.80 0.75 1.45 2.77 3.53 3.00 1.95 1.42 1.26 1.04 0.77 0.74 1.23 2.06 2.02 1.93 1.09 0.54 0.08 0.03 0.20 0.94 0.50
3.75 4.22 4.13 3.98 3.66 3.31 3.04 3.87 3.90 3.89 5.38 5.51 4.18 3.31 5.35 5.68 1.84 1.31 1.52 1.44 1.67 2.04 2.68 1.88 1.83 2.10 2.78 4.29 3.76 2.01 1.27 0.83 1.16 1.15 1.21 1.62 2.14 2.66 1.88 1.67 0.78 0.22 0.07 0.14 0.96 1.37 0.67
3.38 3.30 3.97 4.21 3.71 3.20 2.92 3.19 3.32 3.69 4.53 5.84 5.34 3.69 5.16 5.48 2.31 1.31 1.28 1.16 1.61 2.21 3.08 2.50 3.26 3.15 3.70 4.25 3.51 2.64 1.59 1.05 0.87 0.77 0.89 1.37 2.21 2.43 2.56 2.77 1.51 0.25 0.23 0.64 0.68 0.39 0.89
3.20 3.14 3.26 3.50 3.60 3.27 2.89 2.97 3.18 3.24 3.84 5.03 6.41 4.51 4.45 6.98 3.96 1.34 1.05 0.86 0.98 1.38 2.05 3.03 3.22 2.46 2.91 3.32 2.87 2.37 2.16 1.68 1.06 1.08 1.07 1.39 1.55 1.67 1.79 1.71 0.79 0.31 0.36 0.37 0.35 0.59 1.07